date,time,SUV Intensity [MED/Hr],UV Index,Daily total [MED],Since Last [MED]
12/05/2023,00:01:40,0.000,0.0,0.0,0.0
12/05/2023,00:02:40,0.001,0.0,0.0,0.0
12/05/2023,00:03:40,-0.001,0.0,0.0,0.0
12/05/2023,00:04:40,-0.000,0.0,0.0,0.0
12/05/2023,00:05:40,0.000,0.0,0.0,0.0
12/05/2023,00:06:39,-0.001,0.0,0.0,0.0
12/05/2023,00:07:40,0.001,0.0,0.0,0.0
12/05/2023,00:08:40,0.000,0.0,0.0,0.0
12/05/2023,00:09:40,-0.001,0.0,0.0,0.0
12/05/2023,00:10:40,-0.000,0.0,0.0,0.0
12/05/2023,00:11:40,-0.001,0.0,0.0,0.0
12/05/2023,00:12:40,0.000,0.0,0.0,0.0
12/05/2023,00:13:40,0.000,0.0,0.0,0.0
12/05/2023,00:14:40,-0.000,0.0,0.0,0.0
12/05/2023,00:15:40,0.001,0.0,0.0,0.0
12/05/2023,00:16:39,0.000,0.0,0.0,0.0
12/05/2023,00:17:40,-0.001,0.0,0.0,0.0
12/05/2023,00:18:40,0.000,0.0,0.0,0.0
12/05/2023,00:19:40,0.000,0.0,0.0,0.0
12/05/2023,00:20:41,0.001,0.0,0.0,0.0
12/05/2023,00:21:40,-0.000,0.0,0.0,0.0
12/05/2023,00:22:40,-0.001,0.0,0.0,0.0
12/05/2023,00:23:40,0.000,0.0,0.0,0.0
12/05/2023,00:24:40,0.000,0.0,0.0,0.0
12/05/2023,00:25:40,0.000,0.0,0.0,0.0
12/05/2023,00:26:39,0.000,0.0,0.0,0.0
12/05/2023,00:27:40,0.000,0.0,0.0,0.0
12/05/2023,00:28:40,0.000,0.0,0.0,0.0
12/05/2023,00:29:40,0.000,0.0,0.0,0.0
12/05/2023,00:30:40,0.000,0.0,0.0,0.0
12/05/2023,00:31:40,-0.001,0.0,0.0,0.0
12/05/2023,00:32:39,0.000,0.0,0.0,0.0
12/05/2023,00:33:40,0.000,0.0,0.0,0.0
12/05/2023,00:34:40,0.000,0.0,0.0,0.0
12/05/2023,00:35:40,0.000,0.0,0.0,0.0
12/05/2023,00:36:40,-0.000,0.0,0.0,0.0
12/05/2023,00:37:40,-0.000,0.0,0.0,0.0
12/05/2023,00:38:40,0.000,0.0,0.0,0.0
12/05/2023,00:39:40,0.001,0.0,0.0,0.0
12/05/2023,00:40:40,-0.001,0.0,0.0,0.0
12/05/2023,00:41:40,0.000,0.0,0.0,0.0
12/05/2023,00:42:40,0.001,0.0,0.0,0.0
12/05/2023,00:43:41,0.001,0.0,0.0,0.0
12/05/2023,00:44:40,0.000,0.0,0.0,0.0
12/05/2023,00:45:40,0.000,0.0,0.0,0.0
12/05/2023,00:46:40,0.000,0.0,0.0,0.0
12/05/2023,00:47:40,0.001,0.0,0.0,0.0
12/05/2023,00:48:40,-0.001,0.0,0.0,0.0
12/05/2023,00:49:40,0.000,0.0,0.0,0.0
12/05/2023,00:50:40,-0.001,0.0,0.0,0.0
12/05/2023,00:51:40,0.000,0.0,0.0,0.0
12/05/2023,00:52:40,-0.000,0.0,0.0,0.0
12/05/2023,00:53:40,0.000,0.0,0.0,0.0
12/05/2023,00:54:40,-0.000,0.0,0.0,0.0
12/05/2023,00:55:40,0.000,0.0,0.0,0.0
12/05/2023,00:56:40,0.000,0.0,0.0,0.0
12/05/2023,00:57:40,0.000,0.0,0.0,0.0
12/05/2023,00:58:40,0.000,0.0,0.0,0.0
12/05/2023,00:59:40,-0.000,0.0,0.0,0.0
12/05/2023,01:00:40,0.000,0.0,0.0,0.0
12/05/2023,01:01:40,0.000,0.0,0.0,0.0
12/05/2023,01:02:40,0.001,0.0,0.0,0.0
12/05/2023,01:03:40,0.000,0.0,0.0,0.0
12/05/2023,01:04:40,0.000,0.0,0.0,0.0
12/05/2023,01:05:40,-0.001,0.0,0.0,0.0
12/05/2023,01:06:40,0.000,0.0,0.0,0.0
12/05/2023,01:07:40,0.000,0.0,0.0,0.0
12/05/2023,01:08:40,0.000,0.0,0.0,0.0
12/05/2023,01:09:40,0.000,0.0,0.0,0.0
12/05/2023,01:10:40,-0.000,0.0,0.0,0.0
12/05/2023,01:11:41,0.000,0.0,0.0,0.0
12/05/2023,01:12:40,0.000,0.0,0.0,0.0
12/05/2023,01:13:41,0.000,0.0,0.0,0.0
12/05/2023,01:14:40,0.000,0.0,0.0,0.0
12/05/2023,01:15:40,0.000,0.0,0.0,0.0
12/05/2023,01:16:40,0.000,0.0,0.0,0.0
12/05/2023,01:17:40,0.001,0.0,0.0,0.0
12/05/2023,01:18:40,0.000,0.0,0.0,0.0
12/05/2023,01:19:40,0.000,0.0,0.0,0.0
12/05/2023,01:20:40,0.001,0.0,0.0,0.0
12/05/2023,01:21:41,0.001,0.0,0.0,0.0
12/05/2023,01:22:41,0.001,0.0,0.0,0.0
12/05/2023,01:23:41,-0.001,0.0,0.0,0.0
12/05/2023,01:24:40,0.001,0.0,0.0,0.0
12/05/2023,01:25:40,0.001,0.0,0.0,0.0
12/05/2023,01:26:40,-0.000,0.0,0.0,0.0
12/05/2023,01:27:40,0.000,0.0,0.0,0.0
12/05/2023,01:28:40,0.001,0.0,0.0,0.0
12/05/2023,01:29:40,-0.000,0.0,0.0,0.0
12/05/2023,01:30:40,0.000,0.0,0.0,0.0
12/05/2023,01:31:40,0.000,0.0,0.0,0.0
12/05/2023,01:32:40,-0.000,0.0,0.0,0.0
12/05/2023,01:33:40,0.000,0.0,0.0,0.0
12/05/2023,01:34:40,0.000,0.0,0.0,0.0
12/05/2023,01:35:40,0.000,0.0,0.0,0.0
12/05/2023,01:36:40,-0.000,0.0,0.0,0.0
12/05/2023,01:37:40,-0.001,0.0,0.0,0.0
12/05/2023,01:38:40,-0.000,0.0,0.0,0.0
12/05/2023,01:39:40,0.001,0.0,0.0,0.0
12/05/2023,01:40:40,0.001,0.0,0.0,0.0
12/05/2023,01:41:40,0.001,0.0,0.0,0.0
12/05/2023,01:42:40,0.000,0.0,0.0,0.0
12/05/2023,01:43:40,0.000,0.0,0.0,0.0
12/05/2023,01:44:40,0.000,0.0,0.0,0.0
12/05/2023,01:45:40,0.000,0.0,0.0,0.0
12/05/2023,01:46:40,0.000,0.0,0.0,0.0
12/05/2023,01:47:40,-0.001,0.0,0.0,0.0
12/05/2023,01:48:40,0.000,0.0,0.0,0.0
12/05/2023,01:49:40,-0.000,0.0,0.0,0.0
12/05/2023,01:50:40,0.000,0.0,0.0,0.0
12/05/2023,01:51:40,0.001,0.0,0.0,0.0
12/05/2023,01:52:39,-0.001,0.0,0.0,0.0
12/05/2023,01:53:40,0.000,0.0,0.0,0.0
12/05/2023,01:54:40,-0.000,0.0,0.0,0.0
12/05/2023,01:55:40,-0.000,0.0,0.0,0.0
12/05/2023,01:56:40,0.000,0.0,0.0,0.0
12/05/2023,01:57:40,0.000,0.0,0.0,0.0
12/05/2023,01:58:40,-0.000,0.0,0.0,0.0
12/05/2023,01:59:41,-0.000,0.0,0.0,0.0
12/05/2023,02:00:41,-0.000,0.0,0.0,0.0
12/05/2023,02:01:40,0.000,0.0,0.0,0.0
12/05/2023,02:02:40,-0.001,0.0,0.0,0.0
12/05/2023,02:03:40,0.000,0.0,0.0,0.0
12/05/2023,02:04:40,-0.000,0.0,0.0,0.0
12/05/2023,02:05:40,-0.000,0.0,0.0,0.0
12/05/2023,02:06:40,-0.000,0.0,0.0,0.0
12/05/2023,02:07:41,-0.001,0.0,0.0,0.0
12/05/2023,02:08:40,0.000,0.0,0.0,0.0
12/05/2023,02:09:40,-0.000,0.0,0.0,0.0
12/05/2023,02:10:40,-0.001,0.0,0.0,0.0
12/05/2023,02:11:40,0.001,0.0,0.0,0.0
12/05/2023,02:12:40,-0.000,0.0,0.0,0.0
12/05/2023,02:13:40,0.000,0.0,0.0,0.0
12/05/2023,02:14:40,-0.000,0.0,0.0,0.0
12/05/2023,02:15:40,-0.000,0.0,0.0,0.0
12/05/2023,02:16:40,-0.001,0.0,0.0,0.0
12/05/2023,02:17:40,-0.001,0.0,0.0,0.0
12/05/2023,02:18:41,0.001,0.0,0.0,0.0
12/05/2023,02:19:40,-0.001,0.0,0.0,0.0
12/05/2023,02:20:40,-0.000,0.0,0.0,0.0
12/05/2023,02:21:40,0.000,0.0,0.0,0.0
12/05/2023,02:22:41,0.000,0.0,0.0,0.0
12/05/2023,02:23:41,-0.000,0.0,0.0,0.0
12/05/2023,02:24:40,-0.000,0.0,0.0,0.0
12/05/2023,02:25:40,-0.002,0.0,0.0,0.0
12/05/2023,02:26:40,-0.001,0.0,0.0,0.0
12/05/2023,02:27:40,-0.000,0.0,0.0,0.0
12/05/2023,02:28:40,-0.000,0.0,0.0,0.0
12/05/2023,02:29:41,-0.001,0.0,0.0,0.0
12/05/2023,02:30:40,-0.001,0.0,0.0,0.0
12/05/2023,02:31:40,-0.001,0.0,0.0,0.0
12/05/2023,02:32:40,-0.000,0.0,0.0,0.0
12/05/2023,02:33:40,-0.000,0.0,0.0,0.0
12/05/2023,02:34:40,-0.000,0.0,0.0,0.0
12/05/2023,02:35:40,-0.002,0.0,0.0,0.0
12/05/2023,02:36:40,-0.000,0.0,0.0,0.0
12/05/2023,02:37:41,-0.001,0.0,0.0,0.0
12/05/2023,02:38:40,-0.001,0.0,0.0,0.0
12/05/2023,02:39:40,-0.000,0.0,0.0,0.0
12/05/2023,02:40:41,-0.001,0.0,0.0,0.0
12/05/2023,02:41:40,0.000,0.0,0.0,0.0
12/05/2023,02:42:40,-0.000,0.0,0.0,0.0
12/05/2023,02:43:40,0.001,0.0,0.0,0.0
12/05/2023,02:44:40,-0.000,0.0,0.0,0.0
12/05/2023,02:45:40,-0.001,0.0,0.0,0.0
12/05/2023,02:46:40,0.000,0.0,0.0,0.0
12/05/2023,02:47:40,-0.001,0.0,0.0,0.0
12/05/2023,02:48:40,-0.001,0.0,0.0,0.0
12/05/2023,02:49:40,-0.001,0.0,0.0,0.0
12/05/2023,02:50:40,-0.001,0.0,0.0,0.0
12/05/2023,02:51:40,-0.001,0.0,0.0,0.0
12/05/2023,02:52:40,-0.001,0.0,0.0,0.0
12/05/2023,02:53:41,-0.000,0.0,0.0,0.0
12/05/2023,02:54:40,-0.000,0.0,0.0,0.0
12/05/2023,02:55:40,-0.001,0.0,0.0,0.0
12/05/2023,02:56:40,-0.001,0.0,0.0,0.0
12/05/2023,02:57:40,0.000,0.0,0.0,0.0
12/05/2023,02:58:40,0.000,0.0,0.0,0.0
12/05/2023,02:59:40,-0.001,0.0,0.0,0.0
12/05/2023,03:00:40,-0.001,0.0,0.0,0.0
12/05/2023,03:01:40,0.001,0.0,0.0,0.0
12/05/2023,03:02:40,-0.001,0.0,0.0,0.0
12/05/2023,03:03:40,-0.001,0.0,0.0,0.0
12/05/2023,03:04:40,-0.001,0.0,0.0,0.0
12/05/2023,03:05:41,-0.001,0.0,0.0,0.0
12/05/2023,03:06:40,-0.001,0.0,0.0,0.0
12/05/2023,03:07:40,-0.000,0.0,0.0,0.0
12/05/2023,03:08:40,-0.001,0.0,0.0,0.0
12/05/2023,03:09:40,-0.002,0.0,0.0,0.0
12/05/2023,03:10:40,-0.002,0.0,0.0,0.0
12/05/2023,03:11:40,-0.002,0.0,0.0,0.0
12/05/2023,03:12:41,-0.000,0.0,0.0,0.0
12/05/2023,03:13:40,-0.002,0.0,0.0,0.0
12/05/2023,03:15:03,0.000,0.0,0.0,0.0
12/05/2023,03:16:41,-0.001,0.0,0.0,0.0
12/05/2023,03:17:40,-0.001,0.0,0.0,0.0
12/05/2023,03:18:40,-0.001,0.0,0.0,0.0
12/05/2023,03:19:40,0.000,0.0,0.0,0.0
12/05/2023,03:20:40,-0.002,0.0,0.0,0.0
12/05/2023,03:21:40,-0.001,0.0,0.0,0.0
12/05/2023,03:22:41,-0.001,0.0,0.0,0.0
12/05/2023,03:23:40,-0.001,0.0,0.0,0.0
12/05/2023,03:24:41,-0.001,0.0,0.0,0.0
12/05/2023,03:25:41,-0.001,0.0,0.0,0.0
12/05/2023,03:26:41,-0.001,0.0,0.0,0.0
12/05/2023,03:27:40,-0.002,0.0,0.0,0.0
12/05/2023,03:28:40,-0.001,0.0,0.0,0.0
12/05/2023,03:29:40,-0.001,0.0,0.0,0.0
12/05/2023,03:30:40,-0.001,0.0,0.0,0.0
12/05/2023,03:31:40,-0.001,0.0,0.0,0.0
12/05/2023,03:32:40,-0.000,0.0,0.0,0.0
12/05/2023,03:33:40,-0.001,0.0,0.0,0.0
12/05/2023,03:34:41,-0.001,0.0,0.0,0.0
12/05/2023,03:35:40,-0.000,0.0,0.0,0.0
12/05/2023,03:36:40,-0.000,0.0,0.0,0.0
12/05/2023,03:37:40,-0.001,0.0,0.0,0.0
12/05/2023,03:38:41,-0.002,0.0,0.0,0.0
12/05/2023,03:39:41,-0.001,0.0,0.0,0.0
12/05/2023,03:40:41,-0.001,0.0,0.0,0.0
12/05/2023,03:41:40,-0.001,0.0,0.0,0.0
12/05/2023,03:42:40,-0.001,0.0,0.0,0.0
12/05/2023,03:43:40,-0.001,0.0,0.0,0.0
12/05/2023,03:44:41,-0.001,0.0,0.0,0.0
12/05/2023,03:45:40,0.000,0.0,0.0,0.0
12/05/2023,03:46:40,-0.001,0.0,0.0,0.0
12/05/2023,03:47:41,-0.001,0.0,0.0,0.0
12/05/2023,03:48:40,-0.001,0.0,0.0,0.0
12/05/2023,03:49:41,-0.000,0.0,0.0,0.0
12/05/2023,03:50:40,-0.001,0.0,0.0,0.0
12/05/2023,03:51:40,-0.002,0.0,0.0,0.0
12/05/2023,03:52:40,0.000,0.0,0.0,0.0
12/05/2023,03:53:41,-0.001,0.0,0.0,0.0
12/05/2023,03:54:40,-0.000,0.0,0.0,0.0
12/05/2023,03:55:40,-0.001,0.0,0.0,0.0
12/05/2023,03:56:40,-0.001,0.0,0.0,0.0
12/05/2023,03:57:40,-0.001,0.0,0.0,0.0
12/05/2023,03:58:40,-0.000,0.0,0.0,0.0
12/05/2023,03:59:41,-0.001,0.0,0.0,0.0
12/05/2023,04:00:40,-0.001,0.0,0.0,0.0
12/05/2023,04:01:40,-0.002,0.0,0.0,0.0
12/05/2023,04:02:40,-0.001,0.0,0.0,0.0
12/05/2023,04:03:40,-0.001,0.0,0.0,0.0
12/05/2023,04:04:40,-0.001,0.0,0.0,0.0
12/05/2023,04:05:40,-0.001,0.0,0.0,0.0
12/05/2023,04:06:40,-0.000,0.0,0.0,0.0
12/05/2023,04:07:40,0.000,0.0,0.0,0.0
12/05/2023,04:08:41,-0.000,0.0,0.0,0.0
12/05/2023,04:09:40,-0.000,0.0,0.0,0.0
12/05/2023,04:10:40,-0.001,0.0,0.0,0.0
12/05/2023,04:11:40,-0.000,0.0,0.0,0.0
12/05/2023,04:12:40,-0.001,0.0,0.0,0.0
12/05/2023,04:13:41,-0.001,0.0,0.0,0.0
12/05/2023,04:14:41,-0.000,0.0,0.0,0.0
12/05/2023,04:15:41,-0.000,0.0,0.0,0.0
12/05/2023,04:16:41,0.000,0.0,0.0,0.0
12/05/2023,04:17:40,0.000,0.0,0.0,0.0
12/05/2023,04:18:40,0.000,0.0,0.0,0.0
12/05/2023,04:19:40,0.000,0.0,0.0,0.0
12/05/2023,04:20:40,0.000,0.0,0.0,0.0
12/05/2023,04:21:40,-0.001,0.0,0.0,0.0
12/05/2023,04:22:41,0.000,0.0,0.0,0.0
12/05/2023,04:23:41,0.001,0.0,0.0,0.0
12/05/2023,04:24:40,0.001,0.0,0.0,0.0
12/05/2023,04:25:41,0.001,0.0,0.0,0.0
12/05/2023,04:26:41,0.001,0.0,0.0,0.0
12/05/2023,04:27:41,0.001,0.0,0.0,0.0
12/05/2023,04:28:40,0.001,0.0,0.0,0.0
12/05/2023,04:29:40,0.002,0.0,0.0,0.0
12/05/2023,04:30:40,0.002,0.0,0.0,0.0
12/05/2023,04:31:40,0.002,0.0,0.0,0.0
12/05/2023,04:32:41,0.002,0.0,0.0,0.0
12/05/2023,04:33:41,0.002,0.0,0.0,0.0
12/05/2023,04:34:40,0.001,0.0,0.0,0.0
12/05/2023,04:35:40,0.003,0.0,0.0,0.0
12/05/2023,04:36:40,0.002,0.0,0.0,0.0
12/05/2023,04:37:40,0.002,0.0,0.0,0.0
12/05/2023,04:38:40,0.003,0.0,0.0,0.0
12/05/2023,04:39:40,0.002,0.0,0.0,0.0
12/05/2023,04:40:40,0.003,0.0,0.0,0.0
12/05/2023,04:41:40,0.002,0.0,0.0,0.0
12/05/2023,04:42:40,0.003,0.0,0.0,0.0
12/05/2023,04:43:40,0.003,0.0,0.0,0.0
12/05/2023,04:44:40,0.003,0.0,0.0,0.0
12/05/2023,04:45:40,0.003,0.0,0.0,0.0
12/05/2023,04:46:40,0.004,0.0,0.0,0.0
12/05/2023,04:47:40,0.003,0.0,0.0,0.0
12/05/2023,04:48:40,0.003,0.0,0.0,0.0
12/05/2023,04:49:40,0.004,0.0,0.0,0.0
12/05/2023,04:50:41,0.004,0.0,0.0,0.0
12/05/2023,04:51:40,0.004,0.0,0.0,0.0
12/05/2023,04:52:40,0.005,0.0,0.0,0.0
12/05/2023,04:53:41,0.006,0.0,0.0,0.0
12/05/2023,04:54:41,0.005,0.0,0.0,0.0
12/05/2023,04:55:40,0.005,0.0,0.0,0.0
12/05/2023,04:56:40,0.005,0.0,0.0,0.0
12/05/2023,04:57:41,0.006,0.0,0.0,0.0
12/05/2023,04:58:41,0.007,0.0,0.0,0.0
12/05/2023,04:59:41,0.006,0.0,0.0,0.0
12/05/2023,05:00:41,0.007,0.0,0.0,0.0
12/05/2023,05:01:40,0.008,0.0,0.0,0.0
12/05/2023,05:02:40,0.008,0.0,0.0,0.0
12/05/2023,05:03:40,0.008,0.0,0.001,0.001
12/05/2023,05:04:40,0.007,0.0,0.001,0.0
12/05/2023,05:05:41,0.008,0.0,0.001,0.0
12/05/2023,05:06:40,0.010,0.0,0.001,0.0
12/05/2023,05:07:40,0.009,0.0,0.001,0.0
12/05/2023,05:08:40,0.009,0.0,0.001,0.0
12/05/2023,05:09:40,0.009,0.0,0.002,0.001
12/05/2023,05:10:41,0.009,0.0,0.002,0.0
12/05/2023,05:11:40,0.011,0.0,0.002,0.0
12/05/2023,05:12:41,0.011,0.0,0.002,0.0
12/05/2023,05:13:41,0.011,0.0,0.002,0.0
12/05/2023,05:14:41,0.012,0.0,0.002,0.0
12/05/2023,05:15:40,0.012,0.0,0.003,0.001
12/05/2023,05:16:40,0.012,0.0,0.003,0.0
12/05/2023,05:17:40,0.013,0.0,0.003,0.0
12/05/2023,05:18:40,0.014,0.0,0.003,0.0
12/05/2023,05:19:40,0.014,0.0,0.003,0.0
12/05/2023,05:20:41,0.013,0.0,0.004,0.001
12/05/2023,05:21:41,0.014,0.0,0.004,0.0
12/05/2023,05:22:41,0.014,0.0,0.004,0.0
12/05/2023,05:23:41,0.014,0.0,0.004,0.0
12/05/2023,05:24:40,0.014,0.0,0.005,0.001
12/05/2023,05:25:40,0.014,0.0,0.005,0.0
12/05/2023,05:26:40,0.015,0.0,0.005,0.0
12/05/2023,05:27:41,0.015,0.0,0.005,0.0
12/05/2023,05:28:41,0.016,0.0,0.006,0.001
12/05/2023,05:29:41,0.017,0.0,0.006,0.0
12/05/2023,05:30:41,0.018,0.0,0.006,0.0
12/05/2023,05:31:40,0.018,0.0,0.006,0.0
12/05/2023,05:32:40,0.021,0.0,0.007,0.001
12/05/2023,05:33:40,0.021,0.0,0.007,0.0
12/05/2023,05:34:41,0.021,0.0,0.007,0.0
12/05/2023,05:35:42,0.022,0.0,0.008,0.001
12/05/2023,05:36:40,0.022,0.0,0.008,0.0
12/05/2023,05:37:40,0.023,0.0,0.009,0.001
12/05/2023,05:38:41,0.025,0.0,0.009,0.0
12/05/2023,05:39:41,0.027,0.0,0.009,0.0
12/05/2023,05:40:40,0.027,0.0,0.01,0.001
12/05/2023,05:41:41,0.029,0.0,0.01,0.0
12/05/2023,05:42:41,0.030,0.0,0.011,0.001
12/05/2023,05:43:41,0.031,0.0,0.011,0.0
12/05/2023,05:44:40,0.031,0.0,0.012,0.001
12/05/2023,05:45:40,0.031,0.0,0.012,0.0
12/05/2023,05:46:40,0.031,0.0,0.013,0.001
12/05/2023,05:47:40,0.033,0.0,0.013,0.0
12/05/2023,05:48:40,0.036,0.0,0.014,0.001
12/05/2023,05:49:40,0.037,0.0,0.015,0.001
12/05/2023,05:50:40,0.036,0.0,0.015,0.0
12/05/2023,05:51:41,0.033,0.0,0.016,0.001
12/05/2023,05:52:41,0.035,0.0,0.016,0.0
12/05/2023,05:53:40,0.034,0.0,0.017,0.001
12/05/2023,05:54:40,0.036,0.0,0.017,0.0
12/05/2023,05:55:41,0.038,0.0,0.018,0.001
12/05/2023,05:56:41,0.039,0.0,0.019,0.001
12/05/2023,05:57:40,0.042,0.0,0.019,0.0
12/05/2023,05:58:41,0.042,0.0,0.02,0.001
12/05/2023,05:59:41,0.040,0.0,0.021,0.001
12/05/2023,06:00:41,0.038,0.0,0.021,0.0
12/05/2023,06:01:40,0.038,0.0,0.022,0.001
12/05/2023,06:02:41,0.038,0.0,0.023,0.001
12/05/2023,06:03:41,0.038,0.0,0.023,0.0
12/05/2023,06:04:41,0.039,0.0,0.024,0.001
12/05/2023,06:05:40,0.039,0.0,0.025,0.001
12/05/2023,06:06:41,0.042,0.0,0.025,0.0
12/05/2023,06:07:40,0.047,0.0,0.026,0.001
12/05/2023,06:08:41,0.056,0.0,0.027,0.001
12/05/2023,06:09:41,0.069,0.0,0.028,0.001
12/05/2023,06:10:40,0.069,0.0,0.029,0.001
12/05/2023,06:11:40,0.062,0.0,0.03,0.001
12/05/2023,06:12:40,0.064,0.0,0.031,0.001
12/05/2023,06:13:40,0.067,0.0,0.032,0.001
12/05/2023,06:14:41,0.073,0.0,0.033,0.001
12/05/2023,06:15:41,0.075,0.0,0.035,0.002
12/05/2023,06:16:41,0.073,0.0,0.036,0.001
12/05/2023,06:17:40,0.075,0.0,0.037,0.001
12/05/2023,06:18:41,0.073,0.0,0.038,0.001
12/05/2023,06:19:41,0.070,0.0,0.04,0.002
12/05/2023,06:20:41,0.067,0.0,0.041,0.001
12/05/2023,06:21:41,0.073,0.0,0.042,0.001
12/05/2023,06:22:41,0.089,0.0,0.043,0.001
12/05/2023,06:23:41,0.098,0.0,0.045,0.002
12/05/2023,06:24:40,0.092,0.0,0.046,0.001
12/05/2023,06:25:40,0.086,0.0,0.048,0.002
12/05/2023,06:26:40,0.082,0.0,0.049,0.001
12/05/2023,06:27:40,0.077,0.0,0.051,0.002
12/05/2023,06:28:41,0.077,0.0,0.052,0.001
12/05/2023,06:29:40,0.076,0.0,0.053,0.001
12/05/2023,06:30:41,0.071,0.0,0.054,0.001
12/05/2023,06:31:41,0.068,0.0,0.056,0.002
12/05/2023,06:32:41,0.081,0.0,0.057,0.001
12/05/2023,06:33:41,0.097,0.0,0.058,0.001
12/05/2023,06:34:41,0.093,0.0,0.06,0.002
12/05/2023,06:35:40,0.089,0.0,0.061,0.001
12/05/2023,06:36:40,0.097,0.0,0.063,0.002
12/05/2023,06:37:40,0.099,0.0,0.065,0.002
12/05/2023,06:38:41,0.103,0.0,0.066,0.001
12/05/2023,06:39:41,0.110,0.0,0.068,0.002
12/05/2023,06:40:40,0.106,0.0,0.07,0.002
12/05/2023,06:41:41,0.103,0.0,0.072,0.002
12/05/2023,06:42:41,0.107,0.0,0.073,0.001
12/05/2023,06:43:41,0.114,0.0,0.075,0.002
12/05/2023,06:44:40,0.111,0.0,0.077,0.002
12/05/2023,06:45:40,0.106,0.0,0.079,0.002
12/05/2023,06:46:40,0.109,0.0,0.081,0.002
12/05/2023,06:47:40,0.108,0.0,0.082,0.001
12/05/2023,06:48:41,0.114,0.0,0.084,0.002
12/05/2023,06:49:41,0.123,0.0,0.086,0.002
12/05/2023,06:50:41,0.124,0.0,0.088,0.002
12/05/2023,06:51:41,0.111,0.0,0.09,0.002
12/05/2023,06:52:41,0.112,0.0,0.092,0.002
12/05/2023,06:53:41,0.113,0.0,0.094,0.002
12/05/2023,06:54:40,0.114,0.0,0.096,0.002
12/05/2023,06:55:41,0.113,0.0,0.098,0.002
12/05/2023,06:56:41,0.120,0.0,0.1,0.002
12/05/2023,06:57:41,0.124,0.0,0.102,0.002
12/05/2023,06:59:09,0.131,0.0,0.105,0.003
12/05/2023,07:00:41,0.137,0.0,0.108,0.003
12/05/2023,07:01:41,0.116,0.0,0.111,0.003
12/05/2023,07:02:41,0.109,0.0,0.112,0.001
12/05/2023,07:03:40,0.109,0.0,0.114,0.002
12/05/2023,07:04:40,0.111,0.0,0.116,0.002
12/05/2023,07:05:40,0.120,0.0,0.118,0.002
12/05/2023,07:06:41,0.127,0.0,0.12,0.002
12/05/2023,07:07:41,0.131,0.0,0.122,0.002
12/05/2023,07:08:41,0.121,0.0,0.124,0.002
12/05/2023,07:09:41,0.123,0.0,0.126,0.002
12/05/2023,07:10:40,0.134,0.0,0.128,0.002
12/05/2023,07:11:41,0.154,0.0,0.131,0.003
12/05/2023,07:12:41,0.151,0.0,0.133,0.002
12/05/2023,07:13:41,0.148,0.0,0.136,0.003
12/05/2023,07:14:40,0.162,0.0,0.138,0.002
12/05/2023,07:15:40,0.181,0.0,0.141,0.003
12/05/2023,07:16:41,0.181,0.0,0.144,0.003
12/05/2023,07:17:40,0.168,0.0,0.147,0.003
12/05/2023,07:18:41,0.178,0.0,0.15,0.003
12/05/2023,07:19:41,0.190,0.0,0.153,0.003
12/05/2023,07:20:41,0.195,0.0,0.156,0.003
12/05/2023,07:21:41,0.182,0.0,0.16,0.004
12/05/2023,07:22:40,0.186,0.0,0.163,0.003
12/05/2023,07:23:41,0.175,0.0,0.166,0.003
12/05/2023,07:24:41,0.195,0.0,0.169,0.003
12/05/2023,07:25:41,0.205,0.0,0.172,0.003
12/05/2023,07:26:40,0.197,0.0,0.175,0.003
12/05/2023,07:27:40,0.188,0.0,0.179,0.004
12/05/2023,07:28:41,0.194,0.0,0.182,0.003
12/05/2023,07:29:41,0.195,0.0,0.185,0.003
12/05/2023,07:30:40,0.213,0.0,0.188,0.003
12/05/2023,07:31:41,0.227,1.0,0.192,0.004
12/05/2023,07:32:41,0.219,1.0,0.196,0.004
12/05/2023,07:33:41,0.209,0.0,0.199,0.003
12/05/2023,07:34:41,0.203,0.0,0.203,0.004
12/05/2023,07:35:40,0.229,1.0,0.206,0.003
12/05/2023,07:36:40,0.246,1.0,0.21,0.004
12/05/2023,07:37:41,0.250,1.0,0.215,0.005
12/05/2023,07:38:41,0.239,1.0,0.219,0.004
12/05/2023,07:39:40,0.221,1.0,0.222,0.003
12/05/2023,07:40:41,0.236,1.0,0.226,0.004
12/05/2023,07:41:41,0.206,0.0,0.23,0.004
12/05/2023,07:42:41,0.175,0.0,0.233,0.003
12/05/2023,07:43:40,0.164,0.0,0.236,0.003
12/05/2023,07:44:41,0.180,0.0,0.239,0.003
12/05/2023,07:45:40,0.175,0.0,0.242,0.003
12/05/2023,07:46:41,0.163,0.0,0.245,0.003
12/05/2023,07:47:41,0.176,0.0,0.247,0.002
12/05/2023,07:48:41,0.214,0.0,0.251,0.004
12/05/2023,07:49:40,0.218,1.0,0.254,0.003
12/05/2023,07:50:41,0.181,0.0,0.258,0.004
12/05/2023,07:51:41,0.185,0.0,0.261,0.003
12/05/2023,07:52:41,0.196,0.0,0.264,0.003
12/05/2023,07:53:40,0.198,0.0,0.267,0.003
12/05/2023,07:54:41,0.218,1.0,0.271,0.004
12/05/2023,07:55:40,0.231,1.0,0.274,0.003
12/05/2023,07:56:40,0.239,1.0,0.278,0.004
12/05/2023,07:57:41,0.279,1.0,0.283,0.005
12/05/2023,07:58:41,0.301,1.0,0.287,0.004
12/05/2023,07:59:41,0.326,1.0,0.293,0.006
12/05/2023,08:00:41,0.368,1.0,0.298,0.005
12/05/2023,08:01:41,0.382,1.0,0.305,0.007
12/05/2023,08:02:41,0.423,1.0,0.311,0.006
12/05/2023,08:03:41,0.473,1.0,0.319,0.008
12/05/2023,08:04:40,0.499,1.0,0.327,0.008
12/05/2023,08:05:41,0.511,1.0,0.336,0.009
12/05/2023,08:06:41,0.636,1.0,0.345,0.009
12/05/2023,08:07:41,0.663,2.0,0.356,0.011
12/05/2023,08:08:40,0.577,1.0,0.366,0.01
12/05/2023,08:09:40,0.641,1.0,0.376,0.01
12/05/2023,08:10:41,0.569,1.0,0.386,0.01
12/05/2023,08:11:41,0.665,2.0,0.396,0.01
12/05/2023,08:12:41,0.632,1.0,0.407,0.011
12/05/2023,08:13:40,0.513,1.0,0.416,0.009
12/05/2023,08:14:41,0.438,1.0,0.423,0.007
12/05/2023,08:15:41,0.406,1.0,0.431,0.008
12/05/2023,08:16:41,0.420,1.0,0.437,0.006
12/05/2023,08:17:40,0.499,1.0,0.445,0.008
12/05/2023,08:18:41,0.641,1.0,0.454,0.009
12/05/2023,08:19:41,0.571,1.0,0.463,0.009
12/05/2023,08:20:41,0.762,2.0,0.475,0.012
12/05/2023,08:21:45,0.639,1.0,0.487,0.012
12/05/2023,08:22:42,0.674,2.0,0.498,0.011
12/05/2023,08:23:41,0.664,2.0,0.51,0.012
12/05/2023,08:24:41,0.678,2.0,0.52,0.01
12/05/2023,08:25:41,0.829,2.0,0.533,0.013
12/05/2023,08:26:41,0.833,2.0,0.547,0.014
12/05/2023,08:27:40,0.646,1.0,0.559,0.012
12/05/2023,08:28:41,0.575,1.0,0.569,0.01
12/05/2023,08:29:41,0.579,1.0,0.579,0.01
12/05/2023,08:30:40,0.561,1.0,0.588,0.009
12/05/2023,08:31:41,0.568,1.0,0.597,0.009
12/05/2023,08:32:41,0.588,1.0,0.607,0.01
12/05/2023,08:33:41,0.635,1.0,0.617,0.01
12/05/2023,08:34:41,0.693,2.0,0.629,0.012
12/05/2023,08:35:40,0.674,2.0,0.64,0.011
12/05/2023,08:36:41,0.729,2.0,0.652,0.012
12/05/2023,08:37:41,0.700,2.0,0.665,0.013
12/05/2023,08:38:40,0.694,2.0,0.677,0.012
12/05/2023,08:39:41,0.685,2.0,0.688,0.011
12/05/2023,08:40:41,0.765,2.0,0.7,0.012
12/05/2023,08:41:41,0.789,2.0,0.716,0.016
12/05/2023,08:42:40,0.745,2.0,0.729,0.013
12/05/2023,08:43:41,0.765,2.0,0.742,0.013
12/05/2023,08:44:41,1.006,2.0,0.756,0.014
12/05/2023,08:45:41,0.986,2.0,0.773,0.017
12/05/2023,08:46:41,0.680,2.0,0.787,0.014
12/05/2023,08:47:41,0.686,2.0,0.798,0.011
12/05/2023,08:48:41,0.650,1.0,0.809,0.011
12/05/2023,08:49:41,0.896,2.0,0.821,0.012
12/05/2023,08:50:41,0.706,2.0,0.836,0.015
12/05/2023,08:51:41,0.724,2.0,0.848,0.012
12/05/2023,08:52:41,1.072,2.0,0.863,0.015
12/05/2023,08:53:41,0.807,2.0,0.879,0.016
12/05/2023,08:54:41,0.981,2.0,0.895,0.016
12/05/2023,08:55:41,0.760,2.0,0.908,0.013
12/05/2023,08:56:41,0.886,2.0,0.923,0.015
12/05/2023,08:57:41,0.801,2.0,0.937,0.014
12/05/2023,08:58:41,0.913,2.0,0.951,0.014
12/05/2023,08:59:40,0.898,2.0,0.966,0.015
12/05/2023,09:00:41,0.977,2.0,0.982,0.016
12/05/2023,09:01:41,0.838,2.0,0.997,0.015
12/05/2023,09:02:41,0.704,2.0,1.01,0.013
12/05/2023,09:03:40,0.809,2.0,1.022,0.012
12/05/2023,09:04:40,0.825,2.0,1.036,0.014
12/05/2023,09:05:41,0.846,2.0,1.05,0.014
12/05/2023,09:06:41,0.874,2.0,1.064,0.014
12/05/2023,09:07:41,0.985,2.0,1.079,0.015
12/05/2023,09:08:41,1.019,2.0,1.096,0.017
12/05/2023,09:09:41,0.872,2.0,1.111,0.015
12/05/2023,09:10:41,0.904,2.0,1.126,0.015
12/05/2023,09:11:41,1.073,2.0,1.141,0.015
12/05/2023,09:12:41,0.862,2.0,1.158,0.017
12/05/2023,09:13:41,0.829,2.0,1.172,0.014
12/05/2023,09:14:41,0.829,2.0,1.186,0.014
12/05/2023,09:15:41,0.892,2.0,1.201,0.015
12/05/2023,09:16:41,0.825,2.0,1.215,0.014
12/05/2023,09:17:41,1.126,3.0,1.229,0.014
12/05/2023,09:18:42,1.269,3.0,1.247,0.018
12/05/2023,09:19:41,0.946,2.0,1.268,0.021
12/05/2023,09:20:41,1.307,3.0,1.285,0.017
12/05/2023,09:21:41,1.127,3.0,1.307,0.022
12/05/2023,09:22:41,1.234,3.0,1.325,0.018
12/05/2023,09:23:42,0.974,2.0,1.346,0.021
12/05/2023,09:24:41,1.279,3.0,1.362,0.016
12/05/2023,09:25:41,0.994,2.0,1.384,0.022
12/05/2023,09:26:40,0.783,2.0,1.397,0.013
12/05/2023,09:27:41,0.576,1.0,1.409,0.012
12/05/2023,09:28:41,0.532,1.0,1.418,0.009
12/05/2023,09:29:41,0.647,1.0,1.43,0.012
12/05/2023,09:30:41,0.552,1.0,1.439,0.009
12/05/2023,09:31:41,0.555,1.0,1.448,0.009
12/05/2023,09:32:41,0.496,1.0,1.457,0.009
12/05/2023,09:33:41,0.481,1.0,1.465,0.008
12/05/2023,09:34:41,0.538,1.0,1.474,0.009
12/05/2023,09:35:41,0.625,1.0,1.483,0.009
12/05/2023,09:36:41,0.681,2.0,1.495,0.012
12/05/2023,09:37:40,0.859,2.0,1.506,0.011
12/05/2023,09:38:41,0.844,2.0,1.521,0.015
12/05/2023,09:39:41,0.849,2.0,1.535,0.014
12/05/2023,09:40:41,0.835,2.0,1.548,0.013
12/05/2023,09:41:41,0.866,2.0,1.563,0.015
12/05/2023,09:42:41,0.873,2.0,1.578,0.015
12/05/2023,09:43:41,0.908,2.0,1.593,0.015
12/05/2023,09:44:41,0.923,2.0,1.608,0.015
12/05/2023,09:45:41,0.981,2.0,1.624,0.016
12/05/2023,09:46:40,1.015,2.0,1.64,0.016
12/05/2023,09:47:41,0.967,2.0,1.658,0.018
12/05/2023,09:48:41,0.984,2.0,1.674,0.016
12/05/2023,09:49:41,0.909,2.0,1.689,0.015
12/05/2023,09:50:41,0.948,2.0,1.704,0.015
12/05/2023,09:51:41,1.092,3.0,1.721,0.017
12/05/2023,09:52:41,1.098,3.0,1.741,0.02
12/05/2023,09:53:41,0.865,2.0,1.758,0.017
12/05/2023,09:54:41,0.872,2.0,1.772,0.014
12/05/2023,09:55:40,0.656,2.0,1.786,0.014
12/05/2023,09:56:41,0.590,1.0,1.796,0.01
12/05/2023,09:57:41,0.664,2.0,1.806,0.01
12/05/2023,09:58:40,0.573,1.0,1.817,0.011
12/05/2023,09:59:41,0.568,1.0,1.826,0.009